STARLINK-3901 (52574 NORAD) Tracking and Keplerian Element Data
This shows tracking and keplerian element data for the satellite.
Feedback or suggestion? Click here.
Element | Value |
Catalog | 52574 |
Name | STARLINK-3901 |
Epoch Orbit | 981 |
Epoch Day | 192.91667824 |
Epoch Year | 2022 |
RAAN | 2.3626 |
Inclination | 53.2143 |
Eccentricity | 0.0001408 |
Argument of Perigee | 6.752 |
Mean Anonmoly | 25.1255 |
Mean Motion | 15.47527059 |
Decay Rate | 0.00050948 |
L1 | 1 52574U 22051AQ 22192.91667824 .00050948 00000+0 97700-3 0 9993 |
L2 | 2 52574 53.2143 2.3626 0001408 6.7520 25.1255 15.47527059 9818 |
Live tracking and technical data element details for STARLINK-3901 (NORAD 52574). STARLINK-3901 can be tracked NOW for your location showing map with azimuth and elevation plus other details from your city location.
Track the satellite on the map from your city or location and see movement details for azimuth, elevation, latitude, longitude, range, height, and movement on the map or in text.
IsCatalogInMostPopularTable: catalog: 52574, numindb: 8
Update: records affected: 1
GetName: 52574 STARLINK-3901
Hit Count: updated at: Sun, 14 Aug 2022 00:58:06 GMT